| time (UTC) | temp C | wind direction | speed KPH | gust KPH | rain 1hr cm | rain 24hr cm | rain mn cm | humidity % | barometer mb |
| 20260510225316 | 5 | 0.0 | 0.0 | 0.00 | 0.00 | 0.00 | 86 | 1015.7 | |
| 20260510224320 | 5 | 0.0 | 0.0 | 0.00 | 0.00 | 0.00 | 85 | 1015.7 | |
| 20260510223318 | 5 | 47 | 0.0 | 1.6 | 0.00 | 0.00 | 0.00 | 84 | 1015.9 |
| 20260510222338 | 5 | 0.0 | 0.0 | 0.00 | 0.00 | 0.00 | 84 | 1016.0 | |
| 20260510221317 | 5 | 0.0 | 0.0 | 0.00 | 0.00 | 0.00 | 82 | 1016.1 | |
| 20260510220317 | 5 | 0.0 | 0.0 | 0.00 | 0.00 | 0.00 | 81 | 1016.3 | |
| 20260510215317 | 5 | 0.0 | 0.0 | 0.00 | 0.00 | 0.00 | 79 | 1016.4 | |
| 20260510214318 | 6 | 0.0 | 0.0 | 0.00 | 0.00 | 0.00 | 77 | 1016.5 | |
| 20260510213317 | 6 | 0.0 | 0.0 | 0.00 | 0.00 | 0.00 | 76 | 1016.6 | |
| 20260510212317 | 6 | 0.0 | 0.0 | 0.00 | 0.00 | 0.00 | 76 | 1016.5 | |
| 20260510211318 | 6 | 0.0 | 0.0 | 0.00 | 0.00 | 0.00 | 76 | 1016.7 | |
| 20260510210318 | 6 | 0.0 | 0.0 | 0.00 | 0.00 | 0.00 | 75 | 1016.8 | |
| 20260510205318 | 6 | 0.0 | 0.0 | 0.00 | 0.00 | 0.00 | 75 | 1017.0 | |
| 20260510204318 | 7 | 0.0 | 0.0 | 0.00 | 0.00 | 0.00 | 74 | 1017.1 | |
| 20260510203318 | 7 | 0.0 | 0.0 | 0.00 | 0.00 | 0.00 | 74 | 1017.2 | |
| 20260510202318 | 7 | 292 | 0.0 | 3.2 | 0.00 | 0.00 | 0.00 | 73 | 1017.2 |
| 20260510201319 | 7 | 264 | 0.0 | 3.2 | 0.00 | 0.00 | 0.00 | 72 | 1017.2 |
| 20260510200316 | 7 | 0.0 | 0.0 | 0.00 | 0.00 | 0.00 | 71 | 1017.3 | |
| 20260510195316 | 8 | 231 | 0.0 | 1.6 | 0.00 | 0.00 | 0.00 | 70 | 1017.3 |
| 20260510194319 | 8 | 0.0 | 0.0 | 0.00 | 0.00 | 0.00 | 67 | 1017.3 | |
| 20260510193319 | 8 | 268 | 0.0 | 4.8 | 0.00 | 0.00 | 0.00 | 66 | 1017.3 |
| 20260510192320 | 8 | 302 | 1.6 | 6.4 | 0.00 | 0.00 | 0.00 | 65 | 1017.3 |
| 20260510191317 | 8 | 286 | 3.2 | 8.0 | 0.00 | 0.00 | 0.00 | 65 | 1017.4 |
| 20260510190317 | 9 | 270 | 3.2 | 8.0 | 0.00 | 0.00 | 0.00 | 64 | 1017.4 |
| 20260510185317 | 10 | 269 | 3.2 | 11.3 | 0.00 | 0.00 | 0.00 | 63 | 1017.5 |
| 20260510184318 | 10 | 312 | 3.2 | 8.0 | 0.00 | 0.00 | 0.00 | 62 | 1017.7 |
| 20260510183318 | 10 | 327 | 1.6 | 6.4 | 0.00 | 0.00 | 0.00 | 61 | 1017.7 |
| 20260510182317 | 11 | 307 | 3.2 | 6.4 | 0.00 | 0.00 | 0.00 | 61 | 1017.8 |
| 20260510181358 | 11 | 263 | 1.6 | 3.2 | 0.00 | 0.00 | 0.00 | 59 | 1017.8 |
| 20260510180338 | 11 | 319 | 1.6 | 8.0 | 0.00 | 0.00 | 0.00 | 60 | 1017.8 |
| 20260510175318 | 11 | 322 | 1.6 | 8.0 | 0.00 | 0.00 | 0.00 | 57 | 1017.9 |
| 20260510174318 | 11 | 320 | 3.2 | 6.4 | 0.00 | 0.00 | 0.00 | 58 | 1017.9 |
| 20260510173319 | 11 | 325 | 4.8 | 9.7 | 0.00 | 0.00 | 0.00 | 56 | 1018.1 |
| 20260510172316 | 11 | 262 | 4.8 | 9.7 | 0.00 | 0.00 | 0.00 | 52 | 1018.2 |
| 20260510171319 | 11 | 280 | 3.2 | 11.3 | 0.00 | 0.00 | 0.00 | 51 | 1018.3 |
| 20260510170319 | 12 | 250 | 1.6 | 9.7 | 0.00 | 0.00 | 0.00 | 50 | 1018.2 |
| 20260510165359 | 12 | 278 | 1.6 | 3.2 | 0.00 | 0.00 | 0.00 | 49 | 1018.2 |
| 20260510164316 | 11 | 284 | 6.4 | 9.7 | 0.00 | 0.00 | 0.00 | 50 | 1018.2 |
| 20260510163337 | 12 | 278 | 6.4 | 11.3 | 0.00 | 0.00 | 0.00 | 50 | 1018.6 |
| 20260510162337 | 12 | 320 | 3.2 | 11.3 | 0.00 | 0.00 | 0.00 | 53 | 1018.6 |
| 20260510161317 | 12 | 5 | 4.8 | 8.0 | 0.00 | 0.00 | 0.00 | 54 | 1018.7 |
| 20260510160317 | 11 | 298 | 4.8 | 11.3 | 0.00 | 0.00 | 0.00 | 56 | 1018.8 |
| 20260510155317 | 11 | 263 | 4.8 | 9.7 | 0.00 | 0.00 | 0.00 | 59 | 1018.9 |
| 20260510154317 | 11 | 305 | 3.2 | 8.0 | 0.00 | 0.00 | 0.00 | 61 | 1019.0 |
| 20260510153338 | 12 | 271 | 4.8 | 8.0 | 0.00 | 0.00 | 0.00 | 62 | 1019.1 |
| 20260510152318 | 12 | 286 | 6.4 | 12.9 | 0.00 | 0.00 | 0.00 | 61 | 1019.3 |
| 20260510151318 | 12 | 292 | 6.4 | 12.9 | 0.00 | 0.00 | 0.00 | 61 | 1019.4 |
| 20260510150318 | 12 | 326 | 3.2 | 9.7 | 0.00 | 0.00 | 0.00 | 61 | 1019.5 |
| 20260510145338 | 12 | 18 | 4.8 | 9.7 | 0.00 | 0.00 | 0.00 | 61 | 1019.6 |
| 20260510144319 | 12 | 313 | 4.8 | 8.0 | 0.00 | 0.00 | 0.00 | 62 | 1019.7 |
| 20260510143319 | 12 | 6 | 6.4 | 11.3 | 0.00 | 0.00 | 0.00 | 62 | 1019.8 |
| 20260510142319 | 12 | 296 | 4.8 | 9.7 | 0.00 | 0.00 | 0.00 | 64 | 1019.9 |
| 20260510141339 | 12 | 299 | 1.6 | 6.4 | 0.00 | 0.00 | 0.00 | 64 | 1020.0 |
| 20260510140336 | 12 | 312 | 3.2 | 8.0 | 0.00 | 0.00 | 0.00 | 65 | 1020.1 |
| 20260510135316 | 12 | 346 | 4.8 | 9.7 | 0.00 | 0.00 | 0.00 | 67 | 1020.1 |
| 20260510134321 | 12 | 345 | 4.8 | 11.3 | 0.00 | 0.00 | 0.00 | 65 | 1020.3 |
| 20260510133320 | 12 | 351 | 3.2 | 6.4 | 0.00 | 0.00 | 0.00 | 64 | 1020.4 |
| 20260510132320 | 12 | 293 | 4.8 | 11.3 | 0.00 | 0.00 | 0.00 | 64 | 1020.4 |
| 20260510131317 | 12 | 289 | 1.6 | 4.8 | 0.00 | 0.00 | 0.00 | 65 | 1020.5 |
| 20260510130317 | 12 | 270 | 1.6 | 4.8 | 0.00 | 0.00 | 0.00 | 65 | 1020.6 |
| 20260510125337 | 12 | 332 | 6.4 | 16.1 | 0.00 | 0.00 | 0.00 | 63 | 1020.6 |
| 20260510124318 | 12 | 352 | 3.2 | 8.0 | 0.00 | 0.00 | 0.00 | 64 | 1020.7 |
| 20260510123318 | 12 | 296 | 3.2 | 8.0 | 0.00 | 0.00 | 0.00 | 64 | 1020.8 |
| 20260510122317 | 12 | 335 | 6.4 | 11.3 | 0.00 | 0.00 | 0.00 | 66 | 1021.0 |
| 20260510121318 | 12 | 11 | 3.2 | 6.4 | 0.00 | 0.00 | 0.00 | 66 | 1021.1 |
| 20260510120318 | 12 | 14 | 4.8 | 9.7 | 0.00 | 0.00 | 0.00 | 63 | 1021.0 |
| 20260510115318 | 12 | 39 | 4.8 | 6.4 | 0.00 | 0.00 | 0.00 | 54 | 1021.0 |
| 20260510114318 | 12 | 46 | 4.8 | 14.5 | 0.00 | 0.00 | 0.00 | 58 | 1021.1 |
| 20260510113318 | 12 | 26 | 3.2 | 6.4 | 0.00 | 0.00 | 0.00 | 56 | 1021.2 |
| 20260510112319 | 12 | 38 | 4.8 | 9.7 | 0.00 | 0.00 | 0.00 | 58 | 1021.4 |
| 20260510111318 | 12 | 15 | 4.8 | 9.7 | 0.00 | 0.00 | 0.00 | 56 | 1021.4 |
| 20260510110319 | 12 | 65 | 3.2 | 9.7 | 0.00 | 0.00 | 0.00 | 56 | 1021.5 |
| 20260510105319 | 12 | 359 | 4.8 | 8.0 | 0.00 | 0.00 | 0.00 | 56 | 1021.7 |
| 20260510104319 | 12 | 38 | 0.0 | 3.2 | 0.00 | 0.00 | 0.00 | 60 | 1021.7 |
| 20260510103320 | 11 | 30 | 1.6 | 4.8 | 0.00 | 0.00 | 0.00 | 55 | 1021.8 |
| 20260510102317 | 11 | 19 | 4.8 | 8.0 | 0.00 | 0.00 | 0.00 | 58 | 1022.0 |
| 20260510101317 | 11 | 63 | 3.2 | 9.7 | 0.00 | 0.00 | 0.00 | 58 | 1022.0 |
| 20260510100317 | 11 | 44 | 6.4 | 12.9 | 0.00 | 0.00 | 0.00 | 58 | 1022.1 |
| 20260510095317 | 11 | 36 | 6.4 | 14.5 | 0.00 | 0.00 | 0.00 | 60 | 1022.2 |
| 20260510094320 | 10 | 46 | 6.4 | 9.7 | 0.00 | 0.00 | 0.00 | 63 | 1022.3 |
| 20260510093318 | 10 | 68 | 4.8 | 9.7 | 0.00 | 0.00 | 0.00 | 61 | 1022.3 |
| 20260510092318 | 10 | 34 | 3.2 | 9.7 | 0.00 | 0.00 | 0.00 | 62 | 1022.4 |
| 20260510091318 | 10 | 106 | 6.4 | 9.7 | 0.00 | 0.00 | 0.00 | 63 | 1022.6 |
| 20260510090318 | 10 | 79 | 8.0 | 14.5 | 0.00 | 0.00 | 0.00 | 64 | 1022.6 |
| 20260510085318 | 9 | 56 | 6.4 | 9.7 | 0.00 | 0.00 | 0.00 | 66 | 1022.7 |
| 20260510084339 | 9 | 58 | 6.4 | 11.3 | 0.00 | 0.00 | 0.00 | 67 | 1022.7 |
| 20260510083338 | 9 | 58 | 4.8 | 9.7 | 0.00 | 0.00 | 0.00 | 70 | 1022.6 |
| 20260510082359 | 8 | 44 | 6.4 | 9.7 | 0.00 | 0.00 | 0.00 | 72 | 1022.6 |
| 20260510081319 | 8 | 45 | 6.4 | 14.5 | 0.00 | 0.00 | 0.00 | 73 | 1022.6 |
| 20260510080319 | 8 | 45 | 4.8 | 9.7 | 0.00 | 0.00 | 0.00 | 72 | 1022.6 |
| 20260510075319 | 8 | 51 | 4.8 | 8.0 | 0.00 | 0.00 | 0.00 | 73 | 1022.6 |
| 20260510074319 | 8 | 50 | 6.4 | 8.0 | 0.00 | 0.00 | 0.00 | 73 | 1022.6 |
| 20260510073316 | 8 | 46 | 3.2 | 8.0 | 0.00 | 0.00 | 0.00 | 75 | 1022.7 |
| 20260510072316 | 8 | 58 | 1.6 | 4.8 | 0.00 | 0.00 | 0.00 | 73 | 1022.8 |
| 20260510071317 | 8 | 43 | 3.2 | 6.4 | 0.00 | 0.00 | 0.00 | 75 | 1022.7 |
| 20260510070320 | 7 | 35 | 4.8 | 8.0 | 0.00 | 0.00 | 0.00 | 77 | 1022.6 |
| 20260510065317 | 7 | 48 | 8.0 | 11.3 | 0.00 | 0.00 | 0.00 | 77 | 1022.6 |
| 20260510064337 | 7 | 73 | 3.2 | 6.4 | 0.00 | 0.00 | 0.00 | 78 | 1022.5 |
| 20260510063337 | 8 | 93 | 3.2 | 4.8 | 0.00 | 0.00 | 0.00 | 77 | 1022.5 |
| 20260510062317 | 8 | 55 | 0.0 | 3.2 | 0.00 | 0.00 | 0.00 | 77 | 1022.5 |
| 20260510061338 | 8 | 20 | 3.2 | 4.8 | 0.00 | 0.00 | 0.00 | 79 | 1022.4 |
| 20260510060318 | 8 | 2 | 0.0 | 4.8 | 0.00 | 0.00 | 0.00 | 83 | 1022.4 |
| 20260510055318 | 7 | 0.0 | 0.0 | 0.00 | 0.00 | 0.00 | 87 | 1022.4 | |
| 20260510054318 | 6 | 20 | 1.6 | 4.8 | 0.00 | 0.00 | 0.00 | 90 | 1022.5 |
| 20260510053318 | 6 | 0.0 | 0.0 | 0.00 | 0.00 | 0.00 | 91 | 1022.4 | |
| 20260510052338 | 5 | 0.0 | 0.0 | 0.00 | 0.00 | 0.00 | 91 | 1022.4 | |
| 20260510051319 | 5 | 0.0 | 0.0 | 0.00 | 0.00 | 0.00 | 92 | 1022.4 | |
| 20260510050339 | 5 | 0.0 | 0.0 | 0.00 | 0.00 | 0.00 | 92 | 1022.4 | |
| 20260510045336 | 5 | 0.0 | 0.0 | 0.00 | 0.00 | 0.00 | 92 | 1022.4 | |
| 20260510044339 | 5 | 0.0 | 0.0 | 0.00 | 0.00 | 0.00 | 92 | 1022.4 | |
| 20260510043319 | 5 | 319 | 0.0 | 1.6 | 0.00 | 0.00 | 0.00 | 92 | 1022.4 |
| 20260510042319 | 5 | 0.0 | 0.0 | 0.00 | 0.00 | 0.00 | 92 | 1022.5 | |
| 20260510041400 | 5 | 40 | 1.6 | 6.4 | 0.00 | 0.00 | 0.00 | 93 | 1022.6 |
| 20260510040336 | 5 | 0.0 | 0.0 | 0.00 | 0.00 | 0.00 | 92 | 1022.6 | |
| 20260510035357 | 5 | 270 | 0.0 | 1.6 | 0.00 | 0.00 | 0.00 | 92 | 1022.7 |
| 20260510034317 | 5 | 0.0 | 0.0 | 0.00 | 0.00 | 0.00 | 92 | 1022.7 | |
| 20260510033320 | 5 | 0.0 | 0.0 | 0.00 | 0.00 | 0.00 | 92 | 1022.8 | |
| 20260510032337 | 4 | 199 | 0.0 | 0.0 | 0.00 | 0.00 | 0.00 | 92 | 1022.9 |
| 20260510031317 | 5 | 0.0 | 0.0 | 0.00 | 0.00 | 0.00 | 91 | 1022.9 | |
| 20260510030319 | 5 | 0.0 | 0.0 | 0.00 | 0.00 | 0.00 | 91 | 1022.9 | |
| 20260510025318 | 5 | 0.0 | 0.0 | 0.00 | 0.00 | 0.00 | 91 | 1022.9 | |
| 20260510024318 | 5 | 0.0 | 0.0 | 0.00 | 0.00 | 0.00 | 91 | 1022.9 | |
| 20260510023318 | 5 | 0.0 | 0.0 | 0.00 | 0.00 | 0.00 | 91 | 1022.9 | |
| 20260510022318 | 5 | 0.0 | 0.0 | 0.00 | 0.00 | 0.00 | 90 | 1022.9 | |
| 20260510021318 | 5 | 0.0 | 0.0 | 0.00 | 0.00 | 0.00 | 90 | 1022.9 | |
| 20260510020319 | 5 | 304 | 0.0 | 0.0 | 0.00 | 0.00 | 0.00 | 89 | 1022.9 |
| 20260510015319 | 6 | 0.0 | 0.0 | 0.00 | 0.00 | 0.00 | 89 | 1022.8 | |
| 20260510014316 | 6 | 0.0 | 0.0 | 0.00 | 0.00 | 0.00 | 88 | 1022.8 | |
| 20260510013316 | 6 | 0.0 | 0.0 | 0.00 | 0.00 | 0.00 | 87 | 1022.8 | |
| 20260510012316 | 6 | 0.0 | 0.0 | 0.00 | 0.00 | 0.00 | 86 | 1022.9 | |
| 20260510011340 | 7 | 0.0 | 0.0 | 0.00 | 0.00 | 0.00 | 85 | 1022.9 | |
| 20260510010320 | 7 | 0.0 | 0.0 | 0.00 | 0.00 | 0.00 | 84 | 1022.8 | |
| 20260510005317 | 7 | 0.0 | 0.0 | 0.00 | 0.00 | 0.00 | 84 | 1022.8 | |
| 20260510004317 | 7 | 0.0 | 0.0 | 0.00 | 0.00 | 0.00 | 83 | 1022.8 | |
| 20260510003337 | 7 | 0.0 | 0.0 | 0.00 | 0.00 | 0.00 | 82 | 1022.8 | |
| 20260510002317 | 7 | 0.0 | 0.0 | 0.00 | 0.00 | 0.00 | 82 | 1022.9 | |
| 20260510001318 | 7 | 0.0 | 0.0 | 0.00 | 0.00 | 0.00 | 82 | 1022.9 | |
| 20260510000319 | 8 | 59 | 1.6 | 4.8 | 0.00 | 0.00 | 0.00 | 82 | 1023.0 |
| 20260509235319 | 8 | 0.0 | 0.0 | 0.00 | 0.00 | 0.00 | 82 | 1023.1 | |
| 20260509234318 | 8 | 0.0 | 0.0 | 0.00 | 0.00 | 0.00 | 82 | 1023.1 | |
| 20260509233318 | 8 | 0.0 | 0.0 | 0.00 | 0.00 | 0.00 | 82 | 1023.0 | |
| 20260509232318 | 8 | 50 | 0.0 | 1.6 | 0.00 | 0.00 | 0.00 | 82 | 1023.0 |
| 20260509231316 | 8 | 97 | 0.0 | 3.2 | 0.00 | 0.00 | 0.00 | 82 | 1023.0 |
| 20260509230339 | 8 | 32 | 0.0 | 3.2 | 0.00 | 0.00 | 0.00 | 82 | 1022.9 |